Location: ?????????
(54.7630°N, 39.4991°E)
Time: 16:46:08
(UTC+00:00)

Cosmos 371 Rocket - Pass Details

Date: 14 April 2026
Orbit: 674 x 689 km, 74.0° (Epoch: 16 May)

Event Time Altitude Azimuth Distance (km) Brightness Sun altitude
Rises 19:48:58 0° 334° (NNW) 3,066 8.1 -22.7°
Reaches altitude 10° 19:51:23 10° 341° (NNW) 2,148 6.9 -22.8°
Maximum altitude 19:56:02 45° 54° (NE) 945 4.0 -23.1°
Enters shadow 19:57:01 39° 87° (E) 1,031 4.0 -23.2°
